COSMOS 1943

Satellite information

Favourite Embed

Satellite Type and Status

PAYLOADIN ORBIT

Key statistics

Satellite COSMOS 1943 at a glance.

Uptime

13505

Days in orbit

Revolutions

≈ 14.2

Per day

Orbit

LEO

Low Earth Orbit

Inclination

71.0

Latest

Satellite identification and parameters

Extended collection of information and parameters for COSMOS 1943.

Object identification

Identified? True

Debris? False

Object name: COSMOS 1943

International designator: 1988-039A

Object number (NORAD): 19119

Object ID (CCSDS): 19119

Country: COMMONWEALTH OF INDEPENDENT STATES (CIS)

Current information (Y/N): Y

RCS size: LARGE

Orbital parameters

Period: 101.72 minutes

Inclination: 71.0018 deg

SMA: 7218.225 km

Apoapsis: 848.531 km

Periapsis: 831.649 km

RAAN: 173.0169 deg

Eccentricy: 0.0011694

Argument of periapsis: 345.4657 deg

Mean anomaly: 187.0597 deg

Mean motion: 14.1565407 rev/day

Mean motion (dot): -0.00000004 rev/day2

B* drag term: 0.00002241 1/REarth

Two-line elements (TLE)

Creation date: May 6, 2025, 3:54 a.m.

Reference frame: TEME

Reference center: EARTH

Epoch: May 5, 2025, 8:40 p.m. UTC

TLE line 0: 0 COSMOS 1943

TLE line 1: 1 19119U 88039A 25125.86136889 -.00000004 00000-0 22410-4 0 9991

TLE line 2: 2 19119 71.0018 173.0169 0011694 345.4657 187.0597 14.15654070909246

Live tracking on map

Real-time ground track for satellite COSMOS 1943.

In-orbit conjunctions

A list of the most updated potential collisions computed for object COSMOS 1943.

Target Orbit TCA Probability of collision Miss distance Type
COSMOS 2237 LEO 2025-02-23 05:27:55 0.0001124009 562.0 (m) PAYLOAD
FENGYUN 1C DEB SSO 2024-07-07 19:03:36 0.0001512603 607.0 (m) DEBRIS

Associated space launch

Second generation ELING satellite

COSMOS 1943 was lifted into orbit during the mission ‘Zenit-2 | Tselina-2 5’, on board a Zenit-2 space rocket.

The launch took place on May 15, 1988, 9:20 a.m. from 45/1.

For more information about the launch, click the button.

Launch to space Zenit-2 | Tselina-2 5
Zenit-2 | Tselina-2 5

Agency: N/A

Status: Launch Successful

Launch date: May 15, 1988, 9:20 a.m. UTC

Rocket: Zenit-2

Launch pad: 45/1

Location: Baikonur Cosmodrome, Republic of Kazakhstan

...

Latest news about this satellite

There are no fresh news available about this satellite. Check back as we update our databases every day.


Newsletter sign-up

Weekly statistics, charts and insights to help you stay on top of the space industry.